Location: Boissi�res
(45.2500°N, 2.3667°E)
Time: 06:13:26
(UTC+00:00)

Tiangong - Pass Details

Date: 30 September 2021
Orbit: 382 x 385 km, 41.5° (Epoch: 16 October)

Event Time Altitude Azimuth Distance (km) Brightness Sun altitude
Exits shadow 03:14:37 11° 113° (ESE) 1,353 4.3 -27.0°
Drops below altitude 10° 03:14:46 10° 111° (ESE) 1,397 4.4 -26.9°
Sets 03:17:13 0° 92° (E) 2,251 5.9 -26.6°
